sat.trackr.live / text

‹ back to catalog

DTUSAT-2

NORAD 40030 · 2014-033W

PAYLOAD ACTIVE UNKNOWN

§ Identity

Operator
Country
DEN
Launch date
2014-06-19
Launch site
DLS
Launch vehicle
Mass (kg)
RCS (m²)
0.01

External: N2YO · Heavens-Above · Gunter

§ Orbital elements

Epoch: 2026-05-24T22:05:55.352256Z

Period
95.07 min
Inclination
98.0868°
Eccentricity
0.0006674
Mean motion
15.14666249 rev/d
Perigee alt
517.4 km
Apogee alt
526.6 km
Semi-major
6,900.1 km
B*
3.5174e-4
RAAN
141.1777°
Arg perigee
325.8981°
Mean anomaly
34.1819°
Rev number
64,916

§ Raw data

DTUSAT-21 40030U 14033W   26144.92077954  .00006436  00000+0  35174-3 0  99992 40030  98.0868 141.1777 0006674 325.8981  34.1819 15.14666249649161

JSON: /api/v1/satellites/40030 · /tle

For live sub-satellite position, see the globe view (requires WebGL).

§ Visibility from observer

Set your observer location to see the next 7 days of passes ≥ 10°. The values pass through the URL so the page stays shareable.

No JS? Fill the form by hand. The geolocation button needs JavaScript.

§ Radio — SatNOGS DB

ModeDescriptionDownlinkUplink
MSK S-Band downlink 2.402 GHz

1 transmitter · refreshed weekly from db.satnogs.org